DW6016 Weather Reports


time (UTC)temp
F
wind
direction
speed
knots
gust
knots
rain 1hr
in
rain 24hr
in
rain mn
in
humidity
%
barometer
mb
20260831042027 64 318 0.0 0.0 0.00 0.00 0.00 73 1016.9
20260831041522 64 329 0.0 0.9 0.00 0.00 0.00 73 1016.8
20260831041021 64 318 0.0 0.0 0.00 0.00 0.00 72 1016.8
20260831040516 64 319 0.0 0.0 0.00 0.00 0.00 72 1016.6
20260831040015 65 126 0.0 0.0 0.00 0.00 0.00 71 1016.7
20260831035508 65 312 0.0 0.0 0.00 0.00 0.00 70 1016.7
20260831035003 65 320 0.0 0.0 0.00 0.00 0.00 70 1016.8
20260831034457 65 305 0.0 0.0 0.00 0.00 0.00 70 1016.7
20260831033953 65 315 0.0 0.9 0.00 0.00 0.00 69 1016.7
20260831033448 65 299 0.0 0.0 0.00 0.00 0.00 69 1016.5
20260831032943 65 307 0.9 0.9 0.00 0.00 0.00 69 1016.6
20260831032438 66 312 0.0 0.9 0.00 0.00 0.00 68 1016.8
20260831031933 66 297 0.0 0.0 0.00 0.00 0.00 68 1016.8
20260831031433 66 295 0.0 0.9 0.00 0.00 0.00 67 1016.7
20260831030932 66 311 0.0 0.0 0.00 0.00 0.00 67 1016.9
20260831030431 67 310 0.0 0.0 0.00 0.00 0.00 66 1016.8
20260831025930 67 287 1.7 1.7 0.00 0.00 0.00 65 1016.9
20260831025429 67 309 0.0 0.0 0.00 0.00 0.00 65 1016.7
20260831024925 67 273 0.0 0.0 0.00 0.00 0.00 64 1016.9
20260831024424 67 302 0.0 0.9 0.00 0.00 0.00 64 1016.6
20260831023919 68 300 0.0 0.0 0.00 0.00 0.00 64 1016.9
20260831023418 68 305 0.0 0.9 0.00 0.00 0.00 63 1016.9
20260831022913 68 306 0.0 0.0 0.00 0.00 0.00 62 1016.9
20260831022412 68 309 0.0 0.0 0.00 0.00 0.00 63 1016.9
20260831021906 68 308 0.9 0.9 0.00 0.00 0.00 62 1017.0
20260831021406 69 316 0.0 0.0 0.00 0.00 0.00 61 1017.0
20260831020902 69 310 0.9 0.9 0.00 0.00 0.00 60 1017.0
20260831020401 69 336 1.7 1.7 0.00 0.00 0.00 60 1017.0
20260831015856 69 134 1.7 2.6 0.00 0.00 0.00 60 1017.2
20260831015352 69 306 1.7 1.7 0.00 0.00 0.00 59 1017.0
20260831014852 70 281 0.9 2.6 0.00 0.00 0.00 59 1017.1
20260831014347 70 308 0.0 0.9 0.00 0.00 0.00 59 1017.3
20260831013843 70 334 0.9 0.9 0.00 0.00 0.00 58 1017.2
20260831013338 71 309 1.7 1.7 0.00 0.00 0.00 57 1017.0
20260831012832 71 296 0.0 0.9 0.00 0.00 0.00 56 1017.0
20260831012328 71 308 0.0 0.9 0.00 0.00 0.00 56 1017.0
20260831011828 71 157 0.0 0.9 0.00 0.00 0.00 56 1017.3
20260831011323 71 306 0.0 0.0 0.00 0.00 0.00 55 1017.2
20260831010819 71 309 0.0 0.9 0.00 0.00 0.00 56 1017.4
20260831010318 71 303 0.0 0.9 0.00 0.00 0.00 56 1017.4
20260831005814 71 320 0.0 0.9 0.00 0.00 0.00 55 1017.5
20260831005310 71 318 1.7 2.6 0.00 0.00 0.00 55 1017.6
20260831004804 71 322 0.0 0.9 0.00 0.00 0.00 55 1017.6
20260831004301 71 247 0.9 1.7 0.00 0.00 0.00 55 1017.6
20260831003756 71 276 1.7 1.7 0.00 0.00 0.00 54 1017.7
20260831003252 71 323 0.0 0.9 0.00 0.00 0.00 54 1017.6
20260831002751 71 319 0.9 0.9 0.00 0.00 0.00 53 1017.8
20260831002250 71 288 0.9 0.9 0.00 0.00 0.00 52 1017.9
20260831001747 71 295 1.7 1.7 0.00 0.00 0.00 53 1017.7
20260831001241 71 274 0.9 0.9 0.00 0.00 0.00 52 1018.0
20260831000738 71 303 0.9 0.9 0.00 0.00 0.00 52 1017.7
20260831000233 71 296 1.7 2.6 0.00 0.00 0.00 54 1017.9
20260830235732 71 303 1.7 1.7 0.00 0.00 0.00 55 1018.0
20260830235227 71 294 1.7 1.7 0.00 0.00 0.00 53 1017.8
20260830234722 71 302 0.9 0.9 0.00 0.00 0.00 53 1018.0
20260830234218 71 304 0.9 1.7 0.00 0.00 0.00 53 1018.0
20260830233713 71 306 2.6 2.6 0.00 0.00 0.00 53 1018.0
20260830233209 71 281 0.9 0.9 0.00 0.00 0.00 53 1018.4
20260830232704 71 310 0.9 0.9 0.00 0.00 0.00 53 1018.1
20260830232200 71 301 0.0 0.9 0.00 0.00 0.00 54 1018.2
20260830231656 71 305 0.9 1.7 0.00 0.00 0.00 54 1018.4
20260830231155 71 301 0.9 0.9 0.00 0.00 0.00 53 1018.3
20260830230650 71 288 1.7 1.7 0.00 0.00 0.00 53 1018.2
20260830230145 71 269 0.9 0.9 0.00 0.00 0.00 54 1018.2
20260830225640 71 239 0.9 1.7 0.00 0.00 0.00 53 1018.4
20260830225135 71 304 1.7 1.7 0.00 0.00 0.00 53 1018.4
20260830224634 70 274 0.9 0.9 0.00 0.00 0.00 54 1018.7
20260830224130 70 45 2.6 2.6 0.00 0.00 0.00 54 1018.5
20260830223627 70 310 1.7 1.7 0.00 0.00 0.00 54 1018.9
20260830223126 70 299 0.9 0.9 0.00 0.00 0.00 55 1018.8
20260830222620 70 299 0.9 1.7 0.00 0.00 0.00 54 1019.1
20260830222117 71 338 0.9 0.9 0.00 0.00 0.00 54 1019.0
20260830221612 71 295 1.7 4.3 0.00 0.00 0.00 54 1019.2
20260830221108 70 309 0.0 0.0 0.00 0.00 0.00 55 1019.4
20260830220603 70 288 0.9 1.7 0.00 0.00 0.00 53 1019.3
20260830220056 70 288 1.7 4.3 0.00 0.00 0.00 54 1019.3
20260830215555 70 322 0.9 1.7 0.00 0.00 0.00 54 1019.6
20260830215049 70 281 1.7 2.6 0.00 0.00 0.00 54 1019.6
20260830214544 70 274 2.6 2.6 0.00 0.00 0.00 53 1019.5
20260830214039 70 211 2.6 2.6 0.00 0.00 0.00 54 1019.6
20260830213534 70 305 0.9 0.9 0.00 0.00 0.00 54 1019.7
20260830213029 70 79 4.3 6.1 0.00 0.00 0.00 54 1019.8
20260830212525 70 299 0.9 0.9 0.00 0.00 0.00 54 1020.1
20260830212020 69 312 1.7 1.7 0.00 0.00 0.00 55 1019.9
20260830211515 69 161 0.9 1.7 0.00 0.00 0.00 56 1020.1
20260830211014 69 302 0.9 0.9 0.00 0.00 0.00 56 1020.0
20260830210509 70 2 1.7 1.7 0.00 0.00 0.00 54 1020.0
20260830210009 69 269 0.9 1.7 0.00 0.00 0.00 56 1020.1
20260830205506 69 303 0.9 0.9 0.00 0.00 0.00 54 1019.9
20260830205003 69 323 0.0 0.9 0.00 0.00 0.00 55 1019.9
20260830204501 69 300 0.9 0.9 0.00 0.00 0.00 55 1020.1
20260830203955 69 311 0.9 0.9 0.00 0.00 0.00 54 1020.4
20260830203452 69 304 0.0 0.9 0.00 0.00 0.00 56 1020.5
20260830202951 69 306 0.0 0.0 0.00 0.00 0.00 56 1020.5
20260830202446 69 307 0.9 0.9 0.00 0.00 0.00 55 1020.5
20260830201943 69 260 0.0 0.9 0.00 0.00 0.00 57 1020.6
20260830201441 69 163 2.6 4.3 0.00 0.00 0.00 55 1020.8
20260830200937 69 282 0.0 0.0 0.00 0.00 0.00 56 1020.7
20260830200436 69 106 1.7 1.7 0.00 0.00 0.00 56 1020.8
20260830195931 69 200 1.7 1.7 0.00 0.00 0.00 54 1020.7
20260830195426 68 301 0.0 0.0 0.00 0.00 0.00 57 1020.6
20260830194925 67 304 0.9 0.9 0.00 0.00 0.00 57 1020.9
20260830194424 68 304 0.9 0.9 0.00 0.00 0.00 55 1020.8
20260830193924 69 332 2.6 2.6 0.00 0.00 0.00 54 1020.9
20260830193423 69 5 0.9 0.9 0.00 0.00 0.00 55 1020.8
20260830192919 69 169 0.9 0.9 0.00 0.00 0.00 55 1020.7
20260830192414 68 287 1.7 2.6 0.00 0.00 0.00 56 1021.0
20260830191909 68 307 0.9 0.9 0.00 0.00 0.00 56 1021.2
20260830191408 67 312 1.7 2.6 0.00 0.00 0.00 58 1021.2
20260830190904 67 298 2.6 2.6 0.00 0.00 0.00 59 1021.1
20260830190359 66 208 0.9 1.7 0.00 0.00 0.00 61 1021.3
20260830185858 65 311 0.9 0.9 0.00 0.00 0.00 61 1021.3
20260830185354 65 311 0.0 0.9 0.00 0.00 0.00 62 1021.1
20260830184848 65 303 0.9 1.7 0.00 0.00 0.00 63 1021.5
20260830184348 66 297 0.9 1.7 0.00 0.00 0.00 62 1021.3
20260830183843 64 315 0.0 0.9 0.00 0.00 0.00 65 1021.3
20260830183343 65 300 1.7 1.7 0.00 0.00 0.00 64 1021.5
20260830182838 64 309 0.0 0.0 0.00 0.00 0.00 66 1021.6
20260830182334 65 302 0.9 1.7 0.00 0.00 0.00 64 1021.6
20260830181830 64 321 0.9 1.7 0.00 0.00 0.00 66 1021.6
20260830181325 64 305 0.0 0.0 0.00 0.00 0.00 67 1021.5
20260830180824 64 308 0.9 0.9 0.00 0.00 0.00 66 1021.5
20260830180319 64 337 0.0 0.0 0.00 0.00 0.00 64 1021.0
20260830175818 64 310 0.0 0.0 0.00 0.00 0.00 65 1021.3
20260830175313 64 302 0.9 0.9 0.00 0.00 0.00 64 1021.3
20260830174808 65 232 0.9 0.9 0.00 0.00 0.00 65 1021.4
20260830174304 64 281 0.9 0.9 0.00 0.00 0.00 67 1021.5
20260830173803 63 345 0.9 0.9 0.00 0.00 0.00 68 1021.5
20260830173259 63 338 0.9 0.9 0.00 0.00 0.00 68 1021.5
20260830172755 62 337 0.0 0.0 0.00 0.00 0.00 70 1021.6
20260830172252 62 300 0.0 0.0 0.00 0.00 0.00 75 1021.5
20260830171747 61 322 0.0 0.0 0.00 0.00 0.00 76 1021.4
20260830171242 61 303 0.0 0.0 0.00 0.00 0.00 77 1021.4
20260830170737 61 313 0.0 0.9 0.00 0.00 0.00 77 1021.5
20260830170236 61 304 0.9 0.9 0.00 0.00 0.00 76 1021.4
20260830165735 62 311 0.9 0.9 0.00 0.00 0.00 76 1021.5
20260830165231 63 179 0.9 1.7 0.00 0.00 0.00 74 1021.3
20260830164727 63 266 0.9 0.9 0.00 0.00 0.00 74 1021.4
20260830164223 61 317 0.0 0.0 0.00 0.00 0.00 77 1021.5
20260830163720 61 323 0.0 0.9 0.00 0.00 0.00 77 1021.4
20260830163215 62 313 1.7 1.7 0.00 0.00 0.00 76 1021.5
20260830162709 63 195 1.7 1.7 0.00 0.00 0.00 73 1021.5
20260830162205 61 319 0.0 0.0 0.00 0.00 0.00 78 1021.9
20260830161700 63 309 0.9 0.9 0.00 0.00 0.00 75 1021.8
20260830161154 62 299 0.0 0.0 0.00 0.00 0.00 75 1021.9
20260830160651 61 306 0.9 0.9 0.00 0.00 0.00 77 1021.9
20260830160145 62 323 0.9 0.9 0.00 0.00 0.00 77 1022.0
20260830155642 62 315 0.9 0.9 0.00 0.00 0.00 76 1021.8
20260830155137 63 356 0.0 0.0 0.00 0.00 0.00 75 1021.8
20260830154632 62 32 0.9 0.9 0.00 0.00 0.00 77 1021.6
20260830154128 62 2 0.0 0.9 0.00 0.00 0.00 75 1021.9
20260830153625 63 358 0.0 0.9 0.00 0.00 0.00 75 1021.9
20260830153124 61 279 0.0 0.0 0.00 0.00 0.00 76 1021.9
20260830152623 62 318 0.0 0.0 0.00 0.00 0.00 75 1022.0
20260830152123 61 305 0.0 0.0 0.00 0.00 0.00 78 1022.0
20260830151618 60 305 0.0 0.0 0.00 0.00 0.00 79 1022.2
20260830151113 60 304 0.0 0.0 0.00 0.00 0.00 81 1022.1
20260830150612 57 304 0.0 0.0 0.00 0.00 0.00 85 1022.2
20260830150107 55 304 0.0 0.0 0.00 0.00 0.00 90 1022.0
20260830145606 54 303 0.0 0.0 0.00 0.00 0.00 92 1022.1
20260830145101 52 306 0.0 0.0 0.00 0.00 0.00 98 1021.9
20260830144557 52 306 0.0 0.0 0.00 0.00 0.00 99 1022.0
20260830144053 51 306 0.0 0.0 0.00 0.00 0.00 99 1022.1
20260830143549 50 306 0.0 0.0 0.00 0.00 0.00 99 1022.3
20260830143047 50 306 0.0 0.0 0.00 0.00 0.00 99 1022.2
20260830142542 49 306 0.0 0.0 0.00 0.00 0.00 99 1022.0
20260830142037 49 306 0.0 0.0 0.00 0.00 0.00 99 1021.9
20260830141532 49 306 0.0 0.0 0.00 0.00 0.00 99 1022.2
20260830141027 49 306 0.0 0.0 0.00 0.00 0.00 99 1022.1
20260830140526 49 306 0.0 0.0 0.00 0.00 0.00 99 1022.1
20260830140023 49 306 0.0 0.0 0.00 0.00 0.00 99 1022.0
20260830135512 49 306 0.0 0.0 0.00 0.00 0.00 99 1022.1
20260830135007 49 306 0.0 0.0 0.00 0.00 0.00 99 1022.0
20260830134503 49 306 0.0 0.0 0.00 0.00 0.00 99 1021.8
20260830133958 49 306 0.0 0.0 0.00 0.00 0.00 99 1021.9
20260830133454 49 306 0.0 0.0 0.00 0.00 0.00 99 1021.8
20260830132948 49 306 0.0 0.0 0.00 0.00 0.00 99 1022.0
20260830132444 49 306 0.0 0.0 0.00 0.00 0.00 99 1021.9
20260830131943 49 306 0.0 0.0 0.00 0.00 0.00 99 1022.0
20260830131437 49 306 0.0 0.0 0.00 0.00 0.00 99 1021.8
20260830130932 48 306 0.0 0.0 0.00 0.00 0.00 99 1021.6
20260830130428 48 306 0.0 0.0 0.00 0.00 0.00 99 1021.6
20260830125926 48 306 0.0 0.0 0.00 0.00 0.00 99 1021.9
20260830125422 48 306 0.0 0.0 0.00 0.00 0.00 99 1021.6
20260830124920 48 306 0.0 0.0 0.00 0.00 0.00 99 1021.5
20260830124415 48 306 0.0 0.0 0.00 0.00 0.00 99 1021.6
20260830123912 48 306 0.0 0.0 0.00 0.00 0.00 99 1021.5
20260830123408 48 306 0.0 0.0 0.00 0.00 0.00 99 1021.4
20260830122906 47 306 0.0 0.0 0.00 0.00 0.00 99 1021.6
20260830122400 47 306 0.0 0.0 0.00 0.00 0.00 99 1021.6
20260830121855 47 306 0.0 0.0 0.00 0.00 0.00 99 1021.5
20260830121355 48 306 0.0 0.0 0.00 0.00 0.00 99 1021.5
20260830120850 48 306 0.0 0.0 0.00 0.00 0.00 99 1021.5
20260830120346 47 306 0.0 0.0 0.00 0.00 0.00 99 1021.4
20260830115842 48 306 0.0 0.0 0.00 0.00 0.00 99 1021.4
20260830115338 48 306 0.0 0.0 0.00 0.00 0.00 99 1021.5
20260830114833 48 306 0.0 0.0 0.00 0.00 0.00 99 1021.5
20260830114330 48 306 0.0 0.0 0.00 0.00 0.00 99 1021.8
20260830113824 48 306 0.0 0.0 0.00 0.00 0.00 99 1021.5
20260830113319 48 306 0.0 0.0 0.00 0.00 0.00 99 1021.4
20260830112815 49 306 0.0 0.0 0.00 0.00 0.00 99 1021.6
20260830112311 49 306 0.0 0.0 0.00 0.00 0.00 99 1021.3
20260830111807 49 306 0.0 0.0 0.00 0.00 0.00 99 1021.5
20260830111303 49 306 0.0 0.0 0.00 0.00 0.00 99 1021.4
20260830110802 49 306 0.0 0.0 0.00 0.00 0.00 99 1021.4
20260830110259 49 306 0.0 0.0 0.00 0.00 0.00 98 1021.5
20260830105758 49 306 0.0 0.0 0.00 0.00 0.00 99 1021.2
20260830105254 49 307 0.0 0.0 0.00 0.00 0.00 99 1021.5
20260830104750 49 306 0.0 0.0 0.00 0.00 0.00 98 1021.4
20260830104247 49 306 0.0 0.0 0.00 0.00 0.00 98 1021.4
20260830103745 50 306 0.0 0.0 0.00 0.00 0.00 99 1021.3
20260830103242 49 307 0.0 0.0 0.00 0.00 0.00 99 1021.4
20260830102739 49 307 0.0 0.0 0.00 0.00 0.00 98 1021.2
20260830102235 50 307 0.0 0.0 0.00 0.00 0.00 98 1021.2
20260830101731 49 307 0.0 0.0 0.00 0.00 0.00 98 1021.4
20260830101227 49 307 0.0 0.0 0.00 0.00 0.00 98 1021.1
20260830100720 50 307 0.0 0.0 0.00 0.00 0.00 98 1021.3
20260830100214 50 307 0.0 0.0 0.00 0.00 0.00 98 1021.4
20260830095713 50 307 0.0 0.0 0.00 0.00 0.00 98 1021.3
20260830095210 50 307 0.0 0.0 0.00 0.00 0.00 98 1021.4
20260830094705 50 307 0.0 0.0 0.00 0.00 0.00 97 1021.4
20260830094201 50 307 0.0 0.0 0.00 0.00 0.00 97 1021.5
20260830093656 50 307 0.0 0.0 0.00 0.00 0.00 97 1021.3
20260830093152 50 307 0.0 0.0 0.00 0.00 0.00 97 1021.2
20260830092652 50 307 0.0 0.0 0.00 0.00 0.00 97 1021.3
20260830092150 50 307 0.0 0.0 0.00 0.00 0.00 97 1021.2
20260830091649 50 307 0.0 0.0 0.00 0.00 0.00 97 1021.4
20260830091148 50 307 0.0 0.0 0.00 0.00 0.00 97 1021.0
20260830090643 50 307 0.0 0.0 0.00 0.00 0.00 97 1021.4
20260830090139 50 307 0.0 0.0 0.00 0.00 0.00 96 1021.2
20260830085638 50 307 0.0 0.0 0.00 0.00 0.00 96 1021.3
20260830085134 51 307 0.0 0.0 0.00 0.00 0.00 96 1021.4
20260830084630 51 307 0.0 0.0 0.00 0.00 0.00 96 1021.3
20260830084125 51 307 0.0 0.0 0.00 0.00 0.00 95 1021.3
20260830083620 51 307 0.0 0.0 0.00 0.00 0.00 95 1021.4
20260830083120 51 307 0.0 0.0 0.00 0.00 0.00 95 1021.4
20260830082615 51 307 0.0 0.0 0.00 0.00 0.00 95 1021.5
20260830082111 51 307 0.0 0.0 0.00 0.00 0.00 95 1021.6
20260830081607 51 307 0.0 0.0 0.00 0.00 0.00 94 1021.3
20260830081105 51 307 0.0 0.0 0.00 0.00 0.00 94 1021.4
20260830080600 52 307 0.0 0.0 0.00 0.00 0.00 93 1021.5
20260830080055 52 307 0.0 0.0 0.00 0.00 0.00 93 1021.2
20260830075550 52 307 0.0 0.0 0.00 0.00 0.00 92 1021.3
20260830075050 52 307 0.0 0.0 0.00 0.00 0.00 92 1021.3
20260830074547 52 307 0.0 0.0 0.00 0.00 0.00 91 1021.2
20260830074042 52 307 0.0 0.0 0.00 0.00 0.00 91 1021.1
20260830073538 52 307 0.0 0.0 0.00 0.00 0.00 91 1021.2
20260830073033 52 307 0.0 0.0 0.00 0.00 0.00 91 1021.3
20260830072528 53 307 0.0 0.0 0.00 0.00 0.00 91 1021.5
20260830072023 53 307 0.0 0.0 0.00 0.00 0.00 91 1021.5
20260830071518 53 307 0.0 0.0 0.00 0.00 0.00 90 1021.3
20260830071015 53 307 0.0 0.0 0.00 0.00 0.00 90 1021.2
20260830070511 53 307 0.0 0.0 0.00 0.00 0.00 89 1021.4
20260830070011 53 307 0.0 0.0 0.00 0.01 0.01 88 1021.4
20260830065510 53 307 0.0 0.0 0.00 0.01 0.01 88 1021.3
20260830065008 53 307 0.0 0.0 0.00 0.01 0.01 88 1021.1
20260830064504 54 307 0.0 0.0 0.00 0.01 0.01 88 1021.1
20260830063958 54 307 0.0 0.0 0.00 0.01 0.01 87 1021.1
20260830063458 54 307 0.0 0.0 0.00 0.01 0.01 87 1021.2
20260830062957 54 307 0.0 0.0 0.00 0.01 0.01 86 1021.2
20260830062457 54 307 0.0 0.0 0.00 0.01 0.01 85 1021.4
20260830061952 55 307 0.0 0.0 0.00 0.01 0.01 84 1021.2
20260830061447 55 307 0.0 0.0 0.00 0.01 0.01 84 1021.1
20260830060943 55 307 0.0 0.0 0.00 0.01 0.01 83 1021.1
20260830060440 56 307 0.0 0.0 0.00 0.01 0.01 82 1021.1
20260830055935 56 307 0.0 0.0 0.00 0.01 0.01 81 1021.1
20260830055430 57 307 0.0 0.0 0.00 0.01 0.01 80 1021.2
20260830054926 57 307 0.0 0.0 0.00 0.01 0.01 79 1021.3
20260830054422 58 307 0.0 0.0 0.00 0.01 0.01 78 1021.4
20260830053917 58 307 0.0 0.0 0.00 0.01 0.01 77 1021.2
20260830053413 59 307 0.0 0.0 0.00 0.01 0.01 76 1021.1
20260830052911 59 306 0.0 0.0 0.00 0.01 0.01 75 1021.3
20260830052407 59 303 0.0 0.0 0.00 0.01 0.01 75 1021.1
20260830051902 59 307 0.0 0.0 0.00 0.01 0.01 74 1021.1
20260830051357 60 308 0.0 0.0 0.00 0.01 0.01 73 1021.0
20260830050856 60 316 0.0 0.0 0.00 0.01 0.01 72 1020.8
20260830050352 60 302 0.0 0.0 0.00 0.01 0.01 72 1021.0
20260830045850 60 307 0.0 0.0 0.00 0.01 0.01 70 1021.1
20260830045345 61 307 0.0 0.0 0.00 0.01 0.01 70 1021.1
20260830044844 61 358 0.0 0.0 0.00 0.01 0.01 69 1021.0
20260830044340 61 317 0.0 0.0 0.00 0.01 0.01 69 1020.8
20260830043840 61 308 0.0 0.0 0.00 0.01 0.01 69 1021.0
20260830043335 61 304 0.0 0.0 0.00 0.01 0.01 68 1020.8
20260830042832 61 342 0.0 0.9 0.00 0.01 0.01 67 1020.8